WetterOnline ( http://www.wetteronline.de )

Wetter aktuell Pinneberg

Aktuelles Wetter: Quickborn (17m)

6-stündlich | Neueste Meldungen
Ortszeit Temperatur Wetter
Do, 19.07. 2:00 9.2° C wolkig
Mi, 18.07. 20:00 21.2° C wolkenlos
Mi, 18.07. 14:00 22.0° C bedeckt
Mi, 18.07. 8:00 16.5° C leicht bewölkt
Mi, 18.07. 2:00 17.6° C leichter Regen
Di, 17.07. 20:00 26.9° C wolkenlos
Di, 17.07. 14:00 28.6° C wolkig
Di, 17.07. 8:00 18.4° C wolkenlos
Ortszeit Temperatur Wetter
Do, 19.07. 6:00 7.8° C Nebel
Do, 19.07. 5:30 6.6° C Nebel
Do, 19.07. 5:20 6.6° C Nebel
Do, 19.07. 5:10 6.9° C Nebel
Do, 19.07. 5:00 6.9° C Nebel
Do, 19.07. 4:50 6.9° C Nebel
Do, 19.07. 4:30 7.1° C Nebel
Do, 19.07. 4:00 8.4° C Nebel
Do, 19.07. 3:30 7.9° C Nebel
Do, 19.07. 3:00 8.8° C wolkig
Do, 19.07. 2:30 8.9° C wolkig
Ortszeit Relative Feuchte Sichtweite
Do, 19.07. 2:00 99% 2.6 km
Mi, 18.07. 20:00 53% 40 km
Mi, 18.07. 14:00 56% 45 km
Mi, 18.07. 8:00 91% 9 km
Mi, 18.07. 2:00 91% 9 km
Di, 17.07. 20:00 31% 60 km
Di, 17.07. 14:00 38% 24 km
Di, 17.07. 8:00 75% 18 km
Ortszeit Relative Feuchte Sichtweite
Do, 19.07. 6:00 100% 100 m
Do, 19.07. 5:30 100% 0.7 km
Do, 19.07. 5:20 100% -
Do, 19.07. 5:10 100% -
Do, 19.07. 5:00 100% 100 m
Do, 19.07. 4:50 100% -
Do, 19.07. 4:30 100% <100 m
Do, 19.07. 4:00 100% 0.4 km
Do, 19.07. 3:30 99% 100 m
Do, 19.07. 3:00 100% 2.5 km
Do, 19.07. 2:30 99% 16 km
Ortszeit Niederschlagsmenge Niederschlagsart
Do, 19.07. 2:00 0.0 l/m2 in 6 Std. -
Mi, 18.07. 20:00 0.0 l/m2 in 12 Std. -
Mi, 18.07. 14:00 0.0 l/m2 in 6 Std. -
Mi, 18.07. 8:00 0.1 l/m2 in 12 Std. Regen
Mi, 18.07. 2:00 0.1 l/m2 in 6 Std. Regen
Di, 17.07. 20:00 0.0 l/m2 in 12 Std. -
Di, 17.07. 14:00 0.0 l/m2 in 6 Std. -
Di, 17.07. 8:00 0.0 l/m2 in 12 Std. -
Ortszeit Niederschlagsmenge Niederschlagsart
Do, 19.07. 6:00 0.0 l/m2 in 1 Std. -
Do, 19.07. 5:30 0.0 l/m2 in 1 Std. -
Do, 19.07. 5:20 keine Meldung -
Do, 19.07. 5:10 keine Meldung -
Do, 19.07. 5:00 0.0 l/m2 in 1 Std. -
Do, 19.07. 4:50 keine Meldung -
Do, 19.07. 4:30 0.0 l/m2 in 1 Std. -
Do, 19.07. 4:00 0.0 l/m2 in 1 Std. -
Do, 19.07. 3:30 0.0 l/m2 in 1 Std. -
Do, 19.07. 3:00 0.0 l/m2 in 1 Std. -
Do, 19.07. 2:30 0.0 l/m2 in 1 Std. -
Ortszeit Stärke Spitze Richtung
km/h Bft. km/h Grad Sektor
Do, 19.07. 2:00 4 1 29 310° NW
Mi, 18.07. 20:00 18 3 43 320° NW
Mi, 18.07. 14:00 20 4 43 290° W
Mi, 18.07. 8:00 11 2 29 260° W
Mi, 18.07. 2:00 11 2 43 290° W
Di, 17.07. 20:00 11 2 29 300° NW
Di, 17.07. 14:00 11 2 24 300° NW
Di, 17.07. 8:00 2 1 6 340° N
Ortszeit Stärke Spitze Richtung
km/h Bft. km/h Grad Sektor
Do, 19.07. 6:00 0 0 4 - -
Do, 19.07. 5:30 2 1 2 280° W
Do, 19.07. 5:20 2 1 - 280° W
Do, 19.07. 5:10 0 0 - 330° NW
Do, 19.07. 5:00 0 0 4 - -
Do, 19.07. 4:50 0 0 - - -
Do, 19.07. 4:30 2 1 4 200° S
Do, 19.07. 4:00 4 1 4 150° SO
Do, 19.07. 3:30 2 1 4 320° NW
Do, 19.07. 3:00 2 1 6 180° S
Do, 19.07. 2:30 2 1 6 300° NW
Ortszeit Untergrenze Bedeckung Gattung
total tief tief mittel hoch
Do, 19.07. 2:00 3600 m 3/8 - - - -
Mi, 18.07. 20:00 3300 m 0/8 0/8 - - -
Mi, 18.07. 14:00 1200 m 8/8 8/8 - - -
Mi, 18.07. 8:00 390 m 4/8 4/8 - - -
Mi, 18.07. 2:00 60 m 8/8 7/8 - - -
Di, 17.07. 20:00 - 0/8 0/8 - - -
Di, 17.07. 14:00 1800 m 8/8 7/8 - - -
Di, 17.07. 8:00 - 0/8 0/8 - - -
Ortszeit Bedeckungsgrad in Achtel und Wolkenuntergrenze
Do, 19.07. 6:00 1(<30m) 3(2700m)
Do, 19.07. 5:30 9 9 9
Do, 19.07. 5:20 9 9 9
Do, 19.07. 5:10 1(<30m) 4(2700m)
Do, 19.07. 5:00 9 9 9
Do, 19.07. 4:50 9 9 9
Do, 19.07. 4:30 1(<30m) 3(2700m) 9
Do, 19.07. 4:00 2(2700m)
Do, 19.07. 3:30 4(2700m)
Do, 19.07. 3:00 4(3000m) 9 9
Do, 19.07. 2:30 3(3000m) 5(9000m) 9
Ortszeit Luftdruck NN (hPa) Tendenz (hPa in 3 Std.)
Do, 19.07. 2:00 1019 + 0,6
Mi, 18.07. 20:00 1018 + 0,3
Mi, 18.07. 14:00 1017 + 0,4
Mi, 18.07. 8:00 1016 + 0,8
Mi, 18.07. 2:00 1015 + 0,7
Di, 17.07. 20:00 1012 0,0
Di, 17.07. 14:00 1013 - 0,2
Di, 17.07. 8:00 1013 + 0,2
Ortszeit Luftdruck NN (hPa) Tendenz (hPa in 3 Std.)
Do, 19.07. 6:00 1019 - 0,2
Do, 19.07. 5:30 1019 - 0,4
Do, 19.07. 5:20 1019 keine Meldung
Do, 19.07. 5:10 1019 keine Meldung
Do, 19.07. 5:00 1019 - 0,1
Do, 19.07. 4:50 1019 keine Meldung
Do, 19.07. 4:30 1019 - 0,1
Do, 19.07. 4:00 1019 0,0
Do, 19.07. 3:30 1019 0,0
Do, 19.07. 3:00 1019 + 0,2
Do, 19.07. 2:30 1019 + 0,5
Ortszeit Schneehöhe (cm)
Do, 19.07. 2:00 -
Mi, 18.07. 20:00 -
Mi, 18.07. 14:00 -
Mi, 18.07. 8:00 -
Mi, 18.07. 2:00 -
Di, 17.07. 20:00 -
Di, 17.07. 14:00 -
Di, 17.07. 8:00 -
Ortszeit Schneehöhe (cm)
Do, 19.07. 6:00 -
Do, 19.07. 5:30 -
Do, 19.07. 5:20 -
Do, 19.07. 5:10 -
Do, 19.07. 5:00 -
Do, 19.07. 4:50 -
Do, 19.07. 4:30 -
Do, 19.07. 4:00 -
Do, 19.07. 3:30 -
Do, 19.07. 3:00 -
Do, 19.07. 2:30 -
Link zu dieser Seite / Seite empfehlen

Das Wetter in ...